Location: Buffign�court
(47.8126°N, 6.0176°E)
Time: 17:09:40
(UTC+00:00)

Cosmos 2322 Rocket - Pass Details

Date: 16 June 2021
Orbit: 833 x 850 km, 71.0° (Epoch: 03 August)

Event Time Altitude Azimuth Distance (km) Brightness Sun altitude
Rises 21:44:12 0° 229° (SW) 3,403 5.2 -14.4°
Reaches altitude 10° 21:46:47 10° 237° (WSW) 2,473 4.6 -14.6°
Maximum altitude 21:52:08 41° 307° (NW) 1,217 3.5 -15.0°
Drops below altitude 10° 21:57:32 10° 17° (NNE) 2,487 5.4 -15.4°
Sets 22:00:09 0° 25° (NNE) 3,426 6.0 -15.6°
